Regional Weather Roundup
Issued by NWS Sterling, VA

Home | Current Version | Previous Version | Graphics & Text | Print | Product List | Glossary On
Versions: 1 2 3 4 5 6 7 8 9 10 11 12 13 14 15 16 17 18 19 20 21 22 23 24 25 26 27
000
ASUS41 KLWX 190211
RWRLWX

REGIONAL WEATHER ROUNDUP
NATIONAL WEATHER SERVICE BALTIMORE MD/WASHINGTON DC
1000 PM EDT FRI AUG 18 2017

Note: "FAIR" indicates few or no clouds below 12,000 feet
with no significant weather and/or obstructions to visibility.
 TC=TEMPERATURE CELSIUS

 * =Non NWS site. Station does not report precipitation (e.g. rain,
    snow, etc.), thunder, or fog.

DCZ001-MDZ009-015-VAZ040>042-051-053>054-190300-
WASHINGTON METRO

CITY           SKY/WX    TMP DP  RH WIND       PRES   REMARKS
WASHINGTON NAT CLOUDY    79  77  94 SE6       29.87R
DULLES         CLOUDY    76  76 100 SE6       29.87R
ANDREWS AFB    CLOUDY    75  74  95 S5        29.86R
FT BELVOIR     CLOUDY    77  75  95 CALM      29.85R
QUANTICO       CLOUDY    80  79  96 S8        29.87R
COLLEGE PARK*  CLOUDY    76  74  96 CALM      29.86R
LEESBURG*      CLOUDY    77  77 100 CALM      29.88R
MANASSAS*      CLOUDY    77  75  93 SE3       29.87R
GAITHERSBURG*  CLOUDY    75  74  96 SE7       29.89R

$$

MDZ006>007-011-014-190300-
BALTIMORE METRO

CITY           SKY/WX    TMP DP  RH WIND       PRES   REMARKS
BWI AIRPORT    CLOUDY    75  75 100 S5        29.85R
MD SCIENCE CTR   N/A     78  76  93 MISG      29.85R
ANNAPOLIS      CLOUDY    79  79 100 S6        29.85R
FORT MEADE*    CLOUDY    73  72  94 CALM      29.88R

$$

MDZ012-015-019>023-190300-
MARYLAND EASTERN SHORE

CITY           SKY/WX    TMP DP  RH WIND       PRES   REMARKS
OCEAN CITY     CLOUDY    79  72  79 N8G18     29.90R
SALISBURY      HVY RAIN  75  73  93 N13G20    29.93R FOG
BAY BRIDGE AP* CLOUDY    77  75  94 S6        29.85R
CAMBRIDGE*     CLOUDY    73  72  94 VRB5G14   29.85F

$$

MDZ017>025-190300-
SOUTHERN MARYLAND

CITY           SKY/WX    TMP DP  RH WIND       PRES   REMARKS
PATUXENT RIVER TSTM      73  73 100 S3        29.86F
ST INIGOES     TSTM      75  75 100 S5        29.86F
LEONARDTOWN*   CLOUDY    72  70  94 CALM      29.83R

$$

MDZ003>005-190300-
NORTH CENTRAL MARYLAND

CITY           SKY/WX    TMP DP  RH WIND       PRES   REMARKS
FREDERICK*     CLOUDY    77  77 100 CALM      29.87R
HAGERSTOWN APT CLOUDY    80  75  84 W3        29.86R
WESTMINSTER*   CLOUDY    75  75 100 S6        29.88R

$$

MDZ501>502-190300-
WESTERN MARYLAND

CITY           SKY/WX    TMP DP  RH WIND       PRES   REMARKS
OAKLAND*       CLEAR     64  59  82 W8        29.97R
CUMBERLAND*    CLEAR     79  63  57 CALM      29.92R

$$

VAZ025>031-190300-
SHENANDOAH VALLEY

CITY           SKY/WX    TMP DP  RH WIND       PRES   REMARKS
WINCHESTER*    CLOUDY    72  70  94 CALM      29.88R
FRONT ROYAL*   CLOUDY    73  72  94 S3        29.87R
LURAY*         CLOUDY    73  73 100 CALM      29.89R
NEW MARKET*    CLOUDY    74  73  96 CALM      29.88R
STAUNTON*      CLOUDY    78  70  78 CALM      29.92R
WAYNESBORO*    CLOUDY    78  72  83 W6        29.92R

$$

WVZ021-048>050-054>055-190300-
EASTERN WEST VIRGINIA PANHANDLE

CITY           SKY/WX    TMP DP  RH WIND       PRES   REMARKS
MARTINSBURG    CLOUDY    76  72  87 SW3       29.86R
PETERSBURG*    CLOUDY    75  73  93 CALM      29.92R

$$

VAZ036>039-050-190300-
CENTRAL FOOTHILLS

CITY           SKY/WX    TMP DP  RH WIND       PRES   REMARKS
CHARLOTTESVILL MOCLDY    80  77  90 CALM      29.87R
CULPEPER*      CLOUDY    79  75  89 CALM      29.87R
ORANGE*        CLOUDY    73  73 100 CALM      29.87R
GORDONSVILLE*  MOCLDY    77  77  99 CALM      29.86R
WARRENTON*     CLOUDY    77  72  84 CALM      29.86R

$$

VAZ055>057-190300-
NORTH AND CENTRAL PIEDMONT

CITY           SKY/WX    TMP DP  RH WIND       PRES   REMARKS
FREDERICKSBRG* CLOUDY    77  77 100 CALM      29.85S
STAFFORD*      CLOUDY    77  76  97 E3        29.90R

$$

NCZ024-NYZ072-PAZ021-071-VAZ022-071-190300-
OTHER REGIONAL OBSERVATIONS

CITY           SKY/WX    TMP DP  RH WIND       PRES   REMARKS
NEW YORK CITY  CLOUDY    73  72  96 CALM      29.82R
PHILADELPHIA   CLOUDY    76  73  91 SW10      29.83R
PITTSBURGH     PTCLDY    74  64  71 SW6       29.89R
ROANOKE        CLEAR     76  66  71 VRB3      29.96R
RICHMOND       TSTM      74  73  97 S7        29.87F
RALEIGH        PTCLDY    87  73  62 SW10      29.89R HX  94

$$

ANZ530>537-190300-
MARINE OBSERVATIONS

STATION/POSITION TIME  TEMP    WIND        PRES
                       AIR SEA DIR/SP/G
                 (UTC) (F)     (DEG/KT/KT) (MB)
THOMAS PT LIGHT  0200   78 80  170/ 14/ 15   N/A
BALT KEY BRIDGE  0136   76     210/  7/  8 1010.7R
COVE POINT       0136   74     200/ 11/ 14 1012.0F
LEWISETTA        0136   73 83  260/  8/ 10 1011.7R
SOLOMONS ISLAND  0136   73 81  160/  5/  6   N/A
PINEY POINT      0148          210/  9/ 10   N/A

$$





USA.gov is the U.S. government's official web portal to all federal, state and local government web resources and services.